Regional Weather Roundup
Issued by NWS Newport/Morehead, NC

Current Version | Previous Version | Graphics & Text | Print | Product List | Glossary Off
Versions: 1 2 3 4 5 6 7 8 9 10 11 12 13 14 15 16 17 18 19 20 21 22 23 24 25 26 27 28 29 30 31 32 33 34 35 36 37 38 39 40 41 42 43 44 45 46 47 48 49 50

000
ASUS42 KMHX 272013
RWRMHX
WEATHER ROUNDUP FOR EASTERN NORTH CAROLINA
NATIONAL WEATHER SERVICE NEWPORT/MOREHEAD CITY NC
400 PM EDT MON MAR 27 2017

NOTE: "FAIR" INDICATES FEW OR NO CLOUDS BELOW 12,000 FEET
WITH NO SIGNIFICANT WEATHER AND/OR OBSTRUCTIONS TO VISIBILITY

NCZ015>017-031-032-045>047-102-103-272100-
NORTH COAST

CITY           SKY/WX    TMP DP  RH WIND       PRES   REMARKS
EDENTON        MOSUNNY   79  56  45 SW6       30.05F
ELIZABETH CITY CLOUDY    77  55  46 S9G18     30.04F
KITTY HAWK     NOT AVBL
MANTEO         PTSUNNY   68  55  63 S15G23    30.05F

$$

NCZ045>047-081-094-103-104-272100-
CENTRAL COAST

CITY           SKY/WX    TMP DP  RH WIND       PRES   REMARKS
FRISCO         SUNNY     75  58  55 SW7       30.08F

$$

NCZ095-097-098-100-101-272100-
SOUTHERN COAST

CITY           SKY/WX    TMP DP  RH WIND       PRES   REMARKS
BEAUFORT       SUNNY     74  56  53 S9        30.08F
CEDAR ISLAND   NOT AVBL
JACKSONVILLE   SUNNY     76  55  48 S9G18     30.05F
PINEY ISLAND   CLEAR    N/A N/A N/A S13       30.07F
WILMINGTON     CLOUDY    76  55  48 S10G18    30.06F


$$

NCZ011>013-027>030-043-044-078>080-089-090>093-098-272100-
COASTAL PLAIN

CITY           SKY/WX    TMP DP  RH WIND       PRES   REMARKS
AHOSKIE          N/A     75  57  53 CALM      30.04F
CLINTON        MOSUNNY   78  58  49 S5        30.03F
ELIZABETHTOWN  MOSUNNY   78  55  44 S7        30.04F
GOLDSBORO      PTSUNNY   78  56  45 SW8G17    30.02F
GREENVILLE     PTSUNNY   79  55  44 S9G18     30.04F
HAVELOCK       PTSUNNY   74  51  44 S14       30.07F
KENANSVILLE    CLOUDY    77  55  47 S6        30.04F
KINSTON        PTSUNNY   77  54  44 S12       30.04F
NEW BERN       MOSUNNY   79  52  38 S9G17     30.06F
RICHLANDS      CLOUDY    76  56  49 S10       30.06F
ROCKY MOUNT    MOSUNNY   78  57  48 SW17G23   30.02F
WASHINGTON     CLOUDY    76  55  47 SW12      30.04F
WHITEVILLE     PTSUNNY   79  56  44 S10G17    30.04F

$$

AMZ130-135-150-152-154-156-158-170-250-252-270-ANZ085-086-088-633-658-670-272100-
MARINE OBSERVATIONS

STATION/POSITION TIME  TEMP    WIND        PRES    WAVE   SWELL
                       AIR SEA DIR/SP/G            HT/PER HT/PER
                 (UTC) (F)     (DEG/KT/KT) (MB)    (FT/S) (FT/S)
CHESAPEAKE LIGHT NOT AVBL
64 E VA BEACH    1950   55 51  170/  6/  8 1018.3    3/ 8   3/ 8
DUCK             1948   62 49  140/  8/  9 1017.1
2 E DUCK         1930      56                N/A     3/ 8   2/11
OREGON INLET     1948          170/ 12/ 14   N/A
13E OREGON INLT  1948      54                N/A     4/ 8   3/ 8
HATTERAS CG      1948   71 60  200/  5/  9 1018.6
DIAMOND BUOY     1950   71 76  240/  6/ 10 1019.1    4/ 9   3/ 9
CAPE LOOKOUT     2000   70     180/  7/  8 1018.5
BEAUFORT LAB     1948   69 60  180/  9/ 11 1017.8
30 SE NEW RVR IN 1908   69     130/  2/  6 1019.9
30 SE NEW RVR IN 1943      69                N/A     4/10   2/11
27 SE WRIGHTSVLE 1908   71 65  200/  4/  8 1019.3
5 SE WRIGHTSVLE  1908   65 63  170/  8/ 10 1019.2
225 S CAPE HAT   1950   69 73   90/  8/ 10 1019.3    6/ 9   5/ 9
41 SE CHARLESTON 1950   72 74  210/  6/  8 1018.5    4/ 8   3/ 8

$$




USA.gov is the U.S. government's official web portal to all federal, state and local government web resources and services.